JBU1818 TTPP-KJFK

Flight info

Callsign JBU1818
Flight time N/A
Altitude 32000
Route PERRY UG449 ANADA DCT KINCH/M079F340 L455 SAVIK/N0456F340 Y486 OWENZ Y495 CAMRN
Aircraft A321/M-SDE3FGHIRWY/LB1

Departure

Time N/A
Airport Piarco International Airport (TTPP)

Arrival

Time 2026-05-09 15:52
Airport John F. Kennedy International Airport (KJFK)
Time Latitude Longitude Altitude Speed Heading
2026-05-09 15:23 39.89206 -73.51368 29827 ft 415 kts 288°
2026-05-09 15:23 39.90311 -73.54848 28967 ft 416 kts 288°
2026-05-09 15:23 39.91420 -73.58330 28083 ft 417 kts 288°
2026-05-09 15:24 39.92440 -73.61861 27169 ft 414 kts 280°
2026-05-09 15:24 39.92707 -73.65552 26315 ft 409 kts 264°
2026-05-09 15:24 39.92066 -73.69135 25410 ft 408 kts 247°
2026-05-09 15:24 39.90571 -73.72276 24512 ft 412 kts 231°
2026-05-09 15:25 39.88387 -73.74650 23661 ft 420 kts 214°
2026-05-09 15:25 39.85732 -73.76291 22655 ft 423 kts 208°
2026-05-09 15:25 39.83013 -73.77796 21645 ft 423 kts 207°
2026-05-09 15:26 39.77701 -73.80687 19641 ft 404 kts 207°
2026-05-09 15:26 39.75124 -73.82071 18677 ft 396 kts 207°
2026-05-09 15:26 39.72582 -73.83433 17646 ft 393 kts 207°
2026-05-09 15:26 39.70077 -73.84794 16599 ft 387 kts 207°
2026-05-09 15:27 39.67646 -73.86142 15593 ft 381 kts 207°
2026-05-09 15:27 39.65225 -73.87514 14606 ft 375 kts 207°
2026-05-09 15:27 39.62862 -73.88885 13627 ft 369 kts 207°
2026-05-09 15:27 39.60537 -73.90264 12578 ft 364 kts 207°
2026-05-09 15:28 39.58257 -73.91655 11597 ft 360 kts 207°
2026-05-09 15:28 39.56043 -73.93027 11202 ft 349 kts 208°
2026-05-09 15:28 39.54036 -73.94767 11030 ft 348 kts 224°
2026-05-09 15:28 39.52601 -73.97210 11006 ft 348 kts 241°
2026-05-09 15:29 39.51844 -74.00234 11017 ft 352 kts 259°
2026-05-09 15:29 39.51926 -74.03366 11015 ft 358 kts 278°
2026-05-09 15:29 39.52876 -74.06371 11015 ft 368 kts 298°
2026-05-09 15:29 39.54641 -74.08809 11007 ft 379 kts 320°
2026-05-09 15:30 39.57046 -74.10287 11006 ft 391 kts 341°
2026-05-09 15:30 39.59761 -74.10494 11006 ft 394 kts
2026-05-09 15:30 39.62418 -74.09389 11008 ft 406 kts 22°
2026-05-09 15:30 39.65004 -74.07882 10996 ft 408 kts 22°
2026-05-09 15:31 39.67590 -74.06350 11001 ft 408 kts 22°
2026-05-09 15:31 39.70173 -74.04811 11006 ft 408 kts 22°
2026-05-09 15:31 39.72760 -74.03273 11006 ft 408 kts 22°
2026-05-09 15:31 39.75351 -74.01739 11006 ft 408 kts 22°
2026-05-09 15:32 39.77912 -74.00228 11000 ft 408 kts 22°
2026-05-09 15:32 39.80506 -73.98694 11009 ft 409 kts 22°
2026-05-09 15:32 39.83100 -73.97157 11002 ft 409 kts 22°
2026-05-09 15:32 39.85695 -73.95623 11002 ft 410 kts 22°
2026-05-09 15:33 39.88297 -73.94085 11000 ft 409 kts 22°
2026-05-09 15:33 39.90892 -73.92553 11002 ft 410 kts 22°
2026-05-09 15:33 39.93482 -73.91007 11005 ft 410 kts 22°
2026-05-09 15:33 39.96081 -73.89457 11000 ft 410 kts 22°
2026-05-09 15:34 39.98681 -73.87909 10998 ft 409 kts 22°
2026-05-09 15:34 40.01217 -73.86283 11006 ft 410 kts 28°
2026-05-09 15:34 40.03618 -73.84229 10995 ft 414 kts 36°
2026-05-09 15:34 40.05899 -73.81949 10999 ft 413 kts 37°
2026-05-09 15:35 40.08178 -73.79667 10814 ft 410 kts 37°
2026-05-09 15:35 40.10414 -73.77428 10498 ft 398 kts 37°
2026-05-09 15:35 40.12592 -73.75247 10175 ft 387 kts 37°
2026-05-09 15:35 40.14702 -73.73133 9860 ft 377 kts 37°
2026-05-09 15:36 40.16761 -73.71075 9517 ft 369 kts 37°
2026-05-09 15:36 40.18768 -73.69054 9177 ft 360 kts 38°
2026-05-09 15:36 40.20737 -73.67077 8835 ft 353 kts 37°
2026-05-09 15:36 40.22647 -73.65162 8499 ft 347 kts 37°
2026-05-09 15:37 40.24546 -73.63261 8157 ft 340 kts 37°
2026-05-09 15:37 40.26418 -73.61391 7827 ft 335 kts 37°
2026-05-09 15:37 40.28257 -73.59550 7500 ft 330 kts 37°
2026-05-09 15:37 40.30071 -73.57734 7175 ft 326 kts 37°
2026-05-09 15:38 40.31862 -73.55941 6850 ft 322 kts 37°
2026-05-09 15:38 40.33636 -73.54165 6527 ft 320 kts 37°
2026-05-09 15:38 40.35375 -73.52431 6208 ft 316 kts 37°
2026-05-09 15:38 40.37116 -73.50689 5890 ft 313 kts 37°
2026-05-09 15:39 40.38856 -73.48953 5554 ft 313 kts 34°
2026-05-09 15:39 40.40810 -73.47734 5220 ft 309 kts 11°
2026-05-09 15:39 40.42913 -73.47437 4897 ft 302 kts 358°
2026-05-09 15:39 40.45005 -73.47338 4565 ft 300 kts 357°
2026-05-09 15:40 40.47091 -73.47106 4226 ft 301 kts
2026-05-09 15:40 40.49111 -73.46627 4016 ft 295 kts
2026-05-09 15:40 40.51123 -73.46173 4013 ft 293 kts
2026-05-09 15:40 40.53138 -73.45760 4016 ft 293 kts
2026-05-09 15:41 40.55153 -73.45358 4018 ft 292 kts
2026-05-09 15:41 40.57134 -73.44965 4011 ft 279 kts
2026-05-09 15:41 40.59020 -73.44588 4013 ft 272 kts
2026-05-09 15:41 40.60863 -73.44216 4016 ft 270 kts
2026-05-09 15:42 40.62720 -73.43840 4018 ft 271 kts
2026-05-09 15:42 40.64583 -73.43466 4020 ft 270 kts
2026-05-09 15:42 40.66444 -73.43091 4017 ft 270 kts
2026-05-09 15:42 40.68312 -73.42711 4019 ft 271 kts
2026-05-09 15:43 40.70144 -73.42330 4022 ft 270 kts
2026-05-09 15:43 40.72000 -73.41948 4021 ft 270 kts
2026-05-09 15:43 40.73852 -73.41569 4019 ft 270 kts
2026-05-09 15:43 40.75713 -73.41309 4016 ft 265 kts 348°
2026-05-09 15:44 40.77432 -73.41971 3714 ft 254 kts 320°
2026-05-09 15:44 40.78615 -73.43565 3323 ft 239 kts 293°
2026-05-09 15:44 40.79346 -73.45521 3022 ft 234 kts 288°
2026-05-09 15:44 40.79988 -73.47448 2990 ft 226 kts 287°
2026-05-09 15:45 40.80616 -73.49356 3008 ft 226 kts 287°
2026-05-09 15:45 40.81234 -73.51238 3005 ft 226 kts 287°
2026-05-09 15:45 40.81854 -73.53130 3005 ft 224 kts 287°
2026-05-09 15:45 40.82478 -73.55054 2798 ft 230 kts 285°
2026-05-09 15:46 40.82680 -73.57104 2509 ft 228 kts 257°
2026-05-09 15:46 40.82076 -73.59038 2183 ft 229 kts 239°
2026-05-09 15:46 40.81259 -73.60806 2004 ft 221 kts 237°
2026-05-09 15:46 40.80473 -73.62470 1977 ft 205 kts 236°
2026-05-09 15:47 40.79494 -73.63753 2006 ft 196 kts 214°
2026-05-09 15:47 40.78355 -73.64648 1998 ft 187 kts 212°
2026-05-09 15:47 40.77286 -73.65479 2040 ft 167 kts 213°
2026-05-09 15:47 40.76353 -73.66209 2026 ft 148 kts 214°
2026-05-09 15:48 40.75491 -73.66887 2026 ft 141 kts 214°
2026-05-09 15:48 40.74654 -73.67544 2039 ft 138 kts 214°
2026-05-09 15:48 40.73844 -73.68181 2035 ft 137 kts 214°
2026-05-09 15:48 40.73023 -73.68825 1925 ft 136 kts 214°
2026-05-09 15:49 40.72204 -73.69469 1774 ft 137 kts 213°
2026-05-09 15:49 40.71381 -73.70113 1612 ft 137 kts 213°
2026-05-09 15:49 40.70560 -73.70756 1427 ft 137 kts 212°
2026-05-09 15:49 40.69753 -73.71389 1242 ft 136 kts 212°
2026-05-09 15:50 40.68940 -73.72027 1057 ft 136 kts 212°
2026-05-09 15:50 40.68125 -73.72660 902 ft 136 kts 210°
2026-05-09 15:50 40.67307 -73.73314 708 ft 139 kts 211°
2026-05-09 15:50 40.66466 -73.73932 564 ft 140 kts 208°
2026-05-09 15:51 40.65632 -73.74619 368 ft 142 kts 203°
2026-05-09 15:51 40.64798 -73.75278 151 ft 140 kts 206°
2026-05-09 15:51 40.63959 -73.75923 36 ft 137 kts 207°
2026-05-09 15:51 40.63251 -73.76476 22 ft 93 kts 211°
2026-05-09 15:52 40.62933 -73.76891 23 ft 10 kts 252°
2026-05-09 15:52 40.62928 -73.76918 21 ft 0 kts 262°
2026-05-09 15:53 40.62928 -73.76938 21 ft 12 kts 270°
2026-05-09 15:53 40.62948 -73.77025 22 ft 0 kts 272°
2026-05-09 15:53 40.62951 -73.77050 22 ft 6 kts 276°
2026-05-09 15:54 40.62953 -73.77073 23 ft 0 kts 280°
2026-05-09 15:54 40.62955 -73.77081 25 ft 3 kts 280°